OBJECT H, 60242

Orbit data source: Space-Track

You're viewing an Uncataloged Satellite

Recently launched and/or uncataloged satellites may have evolving metadata. Metadata may include but not limited to: Owner, Maufacturer, Bus, Motor, and Mission.

OBJECT H, 60242 is a satellite in LEO that was launched on Tue, 09 Jul 2024 UTC via an ARIANE 62 launch vehicle from the French Guiana (FRGUI). Unknown objects in Earth's orbit typically refer to objects detected orbiting the Earth but have not yet been identified or cataloged. These objects could be anything from previously untracked satellites, spent rocket stages, debris from satellite collisions, or even natural meteoroids temporarily captured by Earth's gravity.

Loading next visibility...
Identifier
60242, 2024-128H
Orbit
LEO
Country
Flag of TBDTBD
Related business
Flag of DEPlanetary Transportation Systems GmbH (DE)
Manufacturer
PTS
Mission
Operational Commercial Technology
Bus & Motor
CUBESAT 12U, Unknown motor
Mass
24 kg wet, 24 kg dry
Launch date (UTC)
2024-07-09 (1 year ago)
Launch vehicle
ARIANE 62
Launch site
French Guiana (FRGUI)
Object type
Unknown
Shape & HBR
Box, 0.1 m
Radar Cross Section
0.080 m², Medium (>0.1 m² and < 1m²)

Expand to show TLE details & history
Last TLE update: 11 hours ago

TLE from 11 hours ago
0 OBJECT H
1 60242U 24128H   25301.58213468  .00010508  00000-0  67346-3 0  9992
2 60242  61.9804 303.3322 0056972  83.5329 277.2247 15.07677963 71470
Epoch: 2025-10-28T13:58Z
TLE epoch observation values (Epoch: 2025-10-28T13:58:16.436Z)
Latitude
-0.00001°
Longitude
56.59615°
Altitude
540.333 km
Speed
7.596 km/s
True Right ascension
20h 13m 19s
True Declination
0° 00' 00"
Sunlit
Object was in daylight at epoch
Visualization orbit readout
Latitude
Unknown
Longitude
Unknown
Altitude
Unknown
Speed
Unknown
Apparent Right ascension
Unknown
Apparent Declination
Unknown
Sunlit
N/A
Visualization observer readout
Local Sidereal Time
20:12:58
Azimuth
Unknown
Elevation
Unknown
Doppler factor
Unknown
Orbital elements
Apogee altitude
581.653 km
Perigee altitude
502.8 km
Semi-major axis
6,920.364 km
Eccentricity
0.0057
Inclination
61.9804°
RAAN
303.3322°
Arg. of periapsis
83.5329°
True anomaly
276.57647°
Mean anomaly
277.2247°
Eccentric anomaly
276.90064°
Mean motion
3.77007 °/min
Orbital period
95.49 mins
BSTAR
0.00067346
Loading maneuver chart data...
Computing Atmospheric mass density...
Loading historical data...
Loading historical data...
Loading historical data...
Loading historical data...
Loading historical data...
Loading historical data...
Loading historical data...

Documentation

Showing up to 5 results
|